Home   Weather   Scheibbs   Past weeks

Flag for Austria Past Weather in Scheibbs, Lower Austria, Austria — Yesterday and Last 2 Weeks

Now
48 °F

Cool.


Feels Like: 48 °F
Forecast: 45 / 68 °F
Wind: No wind

Location: Amstetten

Current Time: Sep 27, 2016 at 4:06:47 AM

Latest Report: Sep 27, 2016 at 3:00 AM


Visibility: N/A

Pressure: 30.22 "Hg

Humidity: 100%

Dew Point: 48 °F

Location of ScheibbsLocation

Past Weather in Scheibbs — Graph

°F

Scheibbs Temperature Yesterday

Maximum temperature yesterday: 69 °F (at 4:00 PM)
Minimum temperature yesterday: 45 °F (at 8:00 AM)
Average temperature yesterday: 55 °F

High & Low Weather Summary for the Past Weeks

 TemperatureHumidityPressure
High83 °F (Sep 12, 5:00 PM)100% (Sep 12, 2:00 AM)30.39 "Hg (Sep 12, 2:00 AM)
Low42 °F (Sep 23, 7:00 AM)44% (Sep 23, 5:00 PM)29.78 "Hg (Sep 17, 3:00 AM)
Average60 °F84%30.05 "Hg
* Reported Sep 12 2:00 AM — Sep 27 2:00 AM, Scheibbs, Weather by CustomWeather, © 2016

Note: Actual official high and low records may vary slightly from our data, if they occured in-between our weather recording intervals... More about our weather records

Advertising

Scheibbs Weather History for the Previous 24 Hours

Scroll right to see more
 ConditionsComfort  
Time TempWeatherWind HumidityBarometerVisibility
2:00 AM
Tue, Sep 27
48 °FCool.No wind99%30.23 "HgN/A
1:00 AM50 °FCool.1 mph100%30.21 "HgN/A
12:00 AM51 °FCool.1 mph100%30.21 "HgN/A
11:00 PM
Mon, Sep 26
52 °FCool.No wind100%30.21 "HgN/A
10:00 PM54 °FCool.No wind97%30.20 "HgN/A
9:00 PM56 °FCool.No wind95%30.19 "HgN/A
7:00 PM62 °FCool.No wind83%30.15 "HgN/A
6:00 PM68 °FMild.1 mph58%30.14 "HgN/A
4:00 PM69 °FMild.2 mph57%30.13 "HgN/A
3:00 PM68 °FMild.1 mph61%30.14 "HgN/A
2:00 PM67 °FMild.No wind68%30.15 "HgN/A
1:00 PM64 °FMild.1 mph73%30.17 "HgN/A
12:00 PM61 °FCool.No wind77%30.18 "HgN/A
11:00 AM57 °FCool.1 mph86%30.19 "HgN/A
10:00 AM54 °FCool.No wind91%30.21 "HgN/A
9:00 AM48 °FCool.1 mph100%30.22 "HgN/A
8:00 AM45 °FScattered clouds.1 mph100%30.22 "HgN/A
7:00 AM46 °FCool.1 mph100%30.20 "HgN/A
6:00 AM47 °FCool.No wind100%30.19 "HgN/A
5:00 AM47 °FCool.1 mph100%30.19 "HgN/A
4:00 AM46 °FCool.1 mph100%30.18 "HgN/A
Weather by CustomWeather, © 2016

See weather overviewHow to use our weather pages